�������l�o���
Date,Time,MP-1(��Sv/h),MP-2(��Sv/h),MP-3(��Sv/h),MP-4(��Sv/h),MP-5(��Sv/h),MP-6(��Sv/h),MP-7(��Sv/h),MP-8(��Sv/h),����,����(m/s),���J
2019/04/15,00:00,0.755,1.101,0.763,1.405,1.017,0.439,0.766,0.727,��쓌,8.5,�L
2019/04/15,00:10,0.755,1.100,0.762,1.405,1.017,0.440,0.766,0.728,��쓌,11.1,�L
2019/04/15,00:20,0.753,1.096,0.761,1.404,1.014,0.438,0.765,0.727,��쓌,11.7,�L
2019/04/15,00:30,0.754,1.097,0.762,1.404,1.010,0.438,0.766,0.729,��,9.8,�L
2019/04/15,00:40,0.753,1.097,0.764,1.406,1.012,0.438,0.765,0.727,��,9.4,�L
2019/04/15,00:50,0.752,1.096,0.761,1.401,1.009,0.439,0.764,0.726,��,9.7,�L
2019/04/15,01:00,0.752,1.093,0.762,1.400,1.010,0.437,0.764,0.726,��,8.1,�L
2019/04/15,01:10,0.753,1.096,0.761,1.400,1.013,0.439,0.764,0.728,��,9.0,�L
2019/04/15,01:20,0.752,1.094,0.760,1.399,1.010,0.439,0.765,0.726,��,9.0,�L
2019/04/15,01:30,0.750,1.093,0.759,1.399,1.012,0.439,0.763,0.725,��,10.2,�L
2019/04/15,01:40,0.749,1.092,0.757,1.396,1.008,0.440,0.764,0.727,��쓌,9.5,�L
2019/04/15,01:50,0.751,1.086,0.757,1.396,1.006,0.438,0.764,0.727,��쓌,10.8,�L
2019/04/15,02:00,0.748,1.086,0.757,1.393,1.004,0.438,0.762,0.725,��쓌,11.7,�L
2019/04/15,02:10,0.749,1.084,0.757,1.390,1.003,0.438,0.762,0.725,��,10.3,�L
2019/04/15,02:20,0.749,1.084,0.755,1.389,1.000,0.439,0.761,0.724,��,10.2,�L
2019/04/15,02:30,0.747,1.083,0.754,1.389,1.001,0.438,0.762,0.723,��쓌,11.3,�L
2019/04/15,02:40,0.747,1.082,0.755,1.387,1.000,0.438,0.763,0.723,��,9.5,�L
2019/04/15,02:50,0.748,1.080,0.755,1.388,0.996,0.437,0.762,0.723,��,10.3,�L
2019/04/15,03:00,0.747,1.081,0.753,1.382,0.999,0.438,0.762,0.722,��,9.5,�L
2019/04/15,03:10,0.746,1.080,0.754,1.383,0.998,0.438,0.761,0.725,��,11.0,�L
2019/04/15,03:20,0.746,1.078,0.753,1.381,0.998,0.437,0.762,0.723,��,11.1,�L
2019/04/15,03:30,0.744,1.076,0.752,1.380,0.997,0.437,0.761,0.724,��,9.3,�L
2019/04/15,03:40,0.743,1.075,0.751,1.379,0.995,0.437,0.761,0.723,��,10.7,�L
2019/04/15,03:50,0.744,1.074,0.751,1.377,0.995,0.437,0.759,0.723,��,9.0,�L
2019/04/15,04:00,0.742,1.074,0.750,1.376,0.993,0.436,0.760,0.724,��,10.2,�L
2019/04/15,04:10,0.744,1.074,0.750,1.376,0.995,0.437,0.759,0.723,��,10.2,�L
2019/04/15,04:20,0.742,1.075,0.750,1.374,0.998,0.436,0.762,0.723,��,9.8,�L
2019/04/15,04:30,0.742,1.072,0.750,1.375,0.991,0.436,0.761,0.723,��,11.0,�L
2019/04/15,04:40,0.738,1.069,0.750,1.372,0.992,0.434,0.759,0.723,��,10.3,�L
2019/04/15,04:50,0.741,1.071,0.748,1.370,0.991,0.436,0.759,0.722,��,8.2,�L
2019/04/15,05:00,0.737,1.064,0.748,1.365,0.989,0.435,0.755,0.720,�쐼,6.3,�L
2019/04/15,05:10,0.741,1.067,0.747,1.369,0.990,0.435,0.757,0.721,���쐼,4.7,�L
2019/04/15,05:20,0.738,1.065,0.746,1.365,0.990,0.437,0.757,0.721,���쐼,4.8,�L
2019/04/15,05:30,0.740,1.067,0.749,1.370,0.990,0.435,0.758,0.722,���쐼,4.5,�L
2019/04/15,05:40,0.737,1.066,0.746,1.369,0.993,0.435,0.759,0.719,�쐼,3.8,�L
2019/04/15,05:50,0.739,1.066,0.744,1.367,0.993,0.434,0.759,0.720,���쐼,3.7,�L
2019/04/15,06:00,0.738,1.066,0.747,1.369,0.992,0.435,0.760,0.723,��,3.3,�L
2019/04/15,06:10,0.739,1.068,0.748,1.367,0.992,0.434,0.757,0.721,���쐼,3.9,�L
2019/04/15,06:20,0.740,1.067,0.747,1.369,0.989,0.434,0.758,0.721,���쐼,2.6,�L
2019/04/15,06:30,0.741,1.069,0.746,1.371,0.993,0.433,0.759,0.722,��,1.9,�L
2019/04/15,06:40,0.740,1.067,0.747,1.368,0.990,0.434,0.757,0.721,��,3.2,�L
2019/04/15,06:50,0.738,1.068,0.745,1.366,0.993,0.434,0.760,0.719,��,3.0,�L
2019/04/15,07:00,0.737,1.067,0.746,1.369,0.991,0.434,0.761,0.720,���k��,2.3,�L
2019/04/15,07:10,0.737,1.068,0.746,1.369,0.990,0.431,0.760,0.721,���k��,2.8,��
2019/04/15,07:20,0.737,1.067,0.747,1.368,0.992,0.434,0.760,0.722,��,3.5,��
2019/04/15,07:30,0.740,1.068,0.744,1.370,0.993,0.432,0.759,0.720,�k��,3.1,��
2019/04/15,07:40,0.739,1.064,0.747,1.369,0.993,0.434,0.760,0.721,���k��,3.7,��
2019/04/15,07:50,0.740,1.066,0.745,1.372,0.992,0.434,0.760,0.721,�k��,3.3,��
2019/04/15,08:00,0.739,1.066,0.746,1.370,0.995,0.433,0.760,0.722,�k��,3.4,��
2019/04/15,08:10,0.741,1.069,0.746,1.372,0.995,0.433,0.761,0.722,�k��,2.9,��
2019/04/15,08:20,0.740,1.068,0.746,1.372,0.995,0.434,0.761,0.722,�k��,4.3,��
2019/04/15,08:30,0.741,1.071,0.747,1.372,0.993,0.434,0.760,0.723,�k�k��,4.1,��
2019/04/15,08:40,0.743,1.072,0.745,1.373,0.995,0.434,0.760,0.722,�k�k��,4.7,��
2019/04/15,08:50,0.741,1.072,0.748,1.374,0.992,0.433,0.761,0.723,�k��,7.1,��
2019/04/15,09:00,0.745,1.072,0.747,1.373,0.995,0.434,0.760,0.725,�k��,6.2,��
2019/04/15,09:10,0.742,1.073,0.749,1.376,1.000,0.434,0.761,0.723,���k��,8.1,��
2019/04/15,09:20,0.746,1.070,0.749,1.376,1.001,0.434,0.762,0.723,���k��,6.4,��
2019/04/15,09:30,0.744,1.074,0.750,1.376,1.001,0.432,0.763,0.723,���k��,6.4,��
2019/04/15,09:40,0.744,1.079,0.751,1.379,1.001,0.432,0.764,0.722,���k��,12.8,��
2019/04/15,09:50,0.744,1.079,0.752,1.379,1.001,0.432,0.763,0.724,���k��,10.6,��
2019/04/15,10:00,0.742,1.081,0.752,1.378,1.001,0.431,0.764,0.721,���k��,10.9,��
2019/04/15,10:10,0.744,1.077,0.753,1.379,1.001,0.432,0.763,0.723,���k��,9.9,��
2019/04/15,10:20,0.745,1.078,0.752,1.379,1.000,0.432,0.764,0.723,���k��,9.1,��
2019/04/15,10:30,0.746,1.084,0.754,1.379,1.004,0.433,0.766,0.723,���k��,8.5,��
2019/04/15,10:40,0.747,1.083,0.754,1.381,1.005,0.433,0.768,0.723,���k��,7.5,��
2019/04/15,10:50,0.747,1.085,0.754,1.383,1.006,0.433,0.766,0.726,��,9.6,��
2019/04/15,11:00,0.749,1.080,0.754,1.381,1.005,0.433,0.767,0.725,���k��,9.6,��
2019/04/15,11:10,0.749,1.084,0.753,1.379,1.009,0.433,0.766,0.724,�k��,10.6,��
2019/04/15,11:20,0.751,1.084,0.754,1.386,1.009,0.433,0.765,0.724,�k��,9.0,��
2019/04/15,11:30,0.748,1.084,0.754,1.390,1.011,0.432,0.767,0.725,���k��,14.1,��
2019/04/15,11:40,0.749,1.085,0.753,1.384,1.007,0.433,0.766,0.725,���k��,12.4,��
2019/04/15,11:50,0.753,1.089,0.754,1.386,1.008,0.433,0.766,0.723,��,12.8,��
2019/04/15,12:00,0.752,1.088,0.757,1.388,1.012,0.435,0.765,0.724,��,9.1,��
2019/04/15,12:10,0.748,1.092,0.755,1.388,1.011,0.434,0.767,0.725,���쐼,8.7,��
2019/04/15,12:20,0.751,1.094,0.758,1.389,1.012,0.434,0.767,0.726,��,13.5,��
2019/04/15,12:30,0.751,1.093,0.756,1.389,1.011,0.433,0.768,0.725,��,9.0,��
2019/04/15,12:40,0.752,1.090,0.756,1.393,1.014,0.436,0.768,0.725,���k��,12.0,��
2019/04/15,12:50,0.750,1.091,0.757,1.393,1.012,0.434,0.767,0.725,���k��,11.8,��
2019/04/15,13:00,0.752,1.090,0.757,1.393,1.012,0.435,0.766,0.725,��,11.6,��
2019/04/15,13:10,0.752,1.088,0.757,1.393,1.015,0.434,0.768,0.726,��,16.8,��
2019/04/15,13:20,0.750,1.091,0.758,1.396,1.016,0.435,0.768,0.725,��,13.3,��
2019/04/15,13:30,0.753,1.092,0.756,1.393,1.016,0.434,0.769,0.726,��,16.9,��
2019/04/15,13:40,0.755,1.092,0.759,1.394,1.019,0.436,0.767,0.728,��,16.3,��
2019/04/15,13:50,0.755,1.091,0.758,1.396,1.017,0.437,0.769,0.726,��,17.2,��
2019/04/15,14:00,0.753,1.094,0.756,1.396,1.018,0.437,0.768,0.726,��,17.2,��
2019/04/15,14:10,0.755,1.096,0.759,1.396,1.019,0.434,0.768,0.727,��,14.4,��
2019/04/15,14:20,0.754,1.096,0.759,1.397,1.018,0.437,0.769,0.727,��,14.9,��
2019/04/15,14:30,0.754,1.094,0.759,1.398,1.020,0.436,0.768,0.727,��,15.8,��
2019/04/15,14:40,0.754,1.095,0.760,1.396,1.020,0.435,0.769,0.728,��,16.8,��
2019/04/15,14:50,0.754,1.097,0.759,1.398,1.021,0.435,0.770,0.727,���쐼,17.7,��
2019/04/15,15:00,0.754,1.096,0.760,1.395,1.020,0.436,0.770,0.727,���쐼,18.6,��
2019/04/15,15:10,0.755,1.100,0.759,1.397,1.020,0.437,0.768,0.727,���쐼,17.2,��
2019/04/15,15:20,0.756,1.096,0.759,1.398,1.020,0.436,0.770,0.728,���쐼,15.5,��
2019/04/15,15:30,0.756,1.099,0.760,1.398,1.022,0.439,0.770,0.726,��,16.1,��
2019/04/15,15:40,0.754,1.103,0.757,1.400,1.022,0.436,0.768,0.727,��,18.2,��
2019/04/15,15:50,0.754,1.099,0.760,1.400,1.021,0.436,0.769,0.726,��,14.7,��
2019/04/15,16:00,0.757,1.100,0.758,1.400,1.020,0.436,0.770,0.729,��,13.9,��
2019/04/15,16:10,0.755,1.100,0.761,1.400,1.023,0.436,0.770,0.726,��,14.9,��
2019/04/15,16:20,0.757,1.103,0.758,1.400,1.022,0.435,0.768,0.727,��,6.8,��
2019/04/15,16:30,0.755,1.101,0.760,1.399,1.020,0.438,0.768,0.729,���k��,6.0,��
2019/04/15,16:40,0.754,1.100,0.758,1.401,1.020,0.438,0.768,0.726,�k�k��,3.2,��
2019/04/15,16:50,0.756,1.102,0.760,1.401,1.022,0.437,0.768,0.727,�k�k��,5.0,��
2019/04/15,17:00,0.753,1.106,0.762,1.402,1.020,0.436,0.767,0.728,�k,2.3,��
2019/04/15,17:10,0.754,1.107,0.760,1.405,1.022,0.437,0.767,0.729,�쐼,2.6,��
2019/04/15,17:20,0.754,1.106,0.759,1.404,1.021,0.438,0.769,0.730,�k�k��,0.9,��
2019/04/15,17:30,0.755,1.104,0.761,1.405,1.022,0.437,0.768,0.731,���k��,5.3,��
2019/04/15,17:40,0.755,1.107,0.761,1.402,1.020,0.438,0.766,0.730,���k��,5.7,��
2019/04/15,17:50,0.758,1.106,0.761,1.404,1.021,0.437,0.768,0.731,���k��,5.1,��
2019/04/15,18:00,0.757,1.105,0.759,1.402,1.021,0.437,0.767,0.730,���k��,4.6,��
2019/04/15,18:10,0.757,1.109,0.761,1.402,1.020,0.437,0.766,0.731,�k��,4.4,��
2019/04/15,18:20,0.756,1.101,0.761,1.405,1.022,0.437,0.767,0.730,���k��,5.9,��
2019/04/15,18:30,0.757,1.105,0.763,1.404,1.025,0.436,0.766,0.729,���k��,6.1,��
2019/04/15,18:40,0.756,1.105,0.762,1.405,1.024,0.436,0.768,0.731,���k��,6.5,��
2019/04/15,18:50,0.756,1.103,0.763,1.406,1.025,0.437,0.768,0.730,���k��,8.0,��
2019/04/15,19:00,0.757,1.106,0.763,1.403,1.024,0.436,0.768,0.729,��,6.4,��
2019/04/15,19:10,0.756,1.107,0.761,1.404,1.022,0.436,0.769,0.730,���k��,10.7,��
2019/04/15,19:20,0.758,1.108,0.762,1.407,1.025,0.437,0.770,0.729,���k��,7.0,��
2019/04/15,19:30,0.758,1.107,0.763,1.407,1.024,0.435,0.771,0.729,��,7.3,��
2019/04/15,19:40,0.757,1.107,0.764,1.406,1.022,0.436,0.769,0.730,���k��,6.1,��
2019/04/15,19:50,0.755,1.107,0.762,1.407,1.022,0.436,0.768,0.730,���k��,7.0,��
2019/04/15,20:00,0.757,1.108,0.763,1.407,1.024,0.436,0.768,0.730,���k��,9.3,��
2019/04/15,20:10,0.756,1.108,0.761,1.406,1.024,0.435,0.768,0.730,��,5.9,��
2019/04/15,20:20,0.756,1.105,0.762,1.407,1.022,0.436,0.767,0.729,��,5.1,��
2019/04/15,20:30,0.756,1.106,0.763,1.410,1.022,0.437,0.767,0.730,��,5.2,��
2019/04/15,20:40,0.757,1.106,0.761,1.409,1.024,0.434,0.769,0.731,��,6.1,��
2019/04/15,20:50,0.754,1.103,0.762,1.407,1.022,0.435,0.768,0.729,���k��,7.4,��
2019/04/15,21:00,0.756,1.106,0.763,1.407,1.027,0.436,0.769,0.728,��,9.1,��
2019/04/15,21:10,0.759,1.107,0.761,1.406,1.026,0.435,0.769,0.729,���k��,9.0,��
2019/04/15,21:20,0.756,1.104,0.764,1.407,1.025,0.435,0.771,0.730,���k��,9.6,��
2019/04/15,21:30,0.754,1.107,0.764,1.408,1.025,0.435,0.769,0.730,���k��,8.6,��
2019/04/15,21:40,0.755,1.106,0.760,1.410,1.024,0.435,0.770,0.730,��,7.6,��
2019/04/15,21:50,0.757,1.106,0.763,1.407,1.026,0.437,0.770,0.728,��,7.1,��
2019/04/15,22:00,0.756,1.103,0.763,1.408,1.025,0.436,0.768,0.731,���k��,7.0,��
2019/04/15,22:10,0.756,1.104,0.763,1.408,1.023,0.435,0.769,0.730,��,6.5,��
2019/04/15,22:20,0.756,1.107,0.761,1.407,1.024,0.437,0.769,0.729,��,5.2,��
2019/04/15,22:30,0.757,1.103,0.763,1.405,1.024,0.436,0.769,0.730,��,4.5,��
2019/04/15,22:40,0.756,1.107,0.763,1.408,1.021,0.437,0.768,0.730,��,5.1,��
2019/04/15,22:50,0.757,1.107,0.762,1.409,1.022,0.436,0.768,0.731,��,3.2,��
2019/04/15,23:00,0.755,1.106,0.762,1.408,1.024,0.437,0.768,0.729,���k��,2.0,��
2019/04/15,23:10,0.755,1.105,0.763,1.407,1.024,0.437,0.770,0.728,���k��,2.5,��
2019/04/15,23:20,0.754,1.106,0.762,1.407,1.023,0.436,0.771,0.728,�k��,2.3,��
2019/04/15,23:30,0.754,1.102,0.761,1.409,1.021,0.436,0.769,0.730,���k��,3.1,��
2019/04/15,23:40,0.756,1.103,0.762,1.408,1.022,0.436,0.767,0.728,���k��,3.0,��
2019/04/15,23:50,0.756,1.102,0.762,1.408,1.022,0.436,0.769,0.729,���k��,2.6,��
